Find Starlink 3960

NORAD ID: 52659 Int'l Des: 2022-053 Owner: SPXS Country: US Constellation: starlink operational
LEOCIRCULAR

Live Position

Loading 3D Globe...

About Starlink 3960

Description loading...

Upcoming Passes

Passes for default location (London). Set your location on the main map for personalized predictions.

Altitude History

Loading altitude history...

Two-Line Element Set

1 52659U 22053D 26121.74951580 .00000892 00000-0 74135-4 0 9993
2 52659 53.2172 275.8750 0001317 86.6891 273.4252 15.08842364219236
Epoch: May 1, 2026 • Age: 11 hours

Current Status

Altitude 556.4 km
Velocity 7.58 km/s
Sub-Earth Point -46.48°S, 70.28°W
Launch Date May 18, 2022
Age 3.9 years
Type internet

Technical Details

Classification Payload
Mass 297.00 kg
Dry Mass 275.00 kg
Total Mass 297.00 kg
Length 0.20 m
Diameter 2.80 m
Span 9.00 m
Shape Box + pan
Manufacturer SPXS
Bus Type Starlink
Phase Status In Orbit
Owner/State SPXS/US

Most Searched